C/2024 G3 ( ATLAS )

Japanese version
Home page
Updated on May 21, 2024

---------------------------------------------------------------------

* Profile

Discovery Date April 5, 2024
Magnitude 19.2 mag
Discoverer Asteroid Terrestrial-Impact Last Alert System (ATLAS) search program

* Pictures

* Orbital Elements

Epoch 2024 Mar. 31.0 TT = JDT 2460400.5
T 2025 Jan. 13.42585 TT                                 Rudenko
q   0.0934413            (2000.0)            P               Q
z  -0.0001606      Peri.  108.12001     -0.04068164     +0.81564546
 +/-0.0039717      Node   220.31110     +0.14781316     +0.57615567
e   1.0000150      Incl.  116.86422     +0.98817826     -0.05260346
>From 121 observations 2024 Apr. 5-May 12, mean residual 0".5.

* Finding Charts

* Magnitudes Graph

        m1 = 9.0 + 5 log d + 10.0 log r

---------------------------------------------------------------------

The orbital elements are published on M.P.E.C. 2024-J304.
The charts are made with StellaNavigator Ver.11 (AstroArts).
The magnitudes graphs are made with Comet for Windows.

---------------------------------------------------------------------

Copyright(C) Seiichi Yoshida (comet@aerith.net). All rights reserved.